カタログに戻る

ONEWEB-0603

運用中通信PO
NORAD 54667·PAYLOAD·🇬🇧 United Kingdom

打ち上げ Dec 8, 2022 から Cape Canaveral Space Force Station

Loading…

次のパス (今後24時間)

TLE

最新Source: CelesTrak SupGP

元期: Sep 14, 2026, 17:05 UTC

1 54667C 22166AB  26257.71233057  .00001172  00000+0  28422-2 0  2572
2 54667  87.9279 226.1427 0002218  83.7125 309.8637 13.21820272    10

AllMySatでONEWEB-0603をリアルタイム追跡

Download on the App Store